Location: Napa Soda Springs
(38.3907°N, 122.2794°W)
Time: 21:27:52
(UTC+00:00)

Cosmos 1606 Rocket - Pass Details

Date: 29 October 2020
Orbit: 604 x 631 km, 82.5° (Epoch: 24 November)

Event Time Altitude Azimuth Distance (km) Brightness Sun altitude
Rises 13:13:32 0° 343° (NNW) 2,930 6.8 -16.1°
Reaches altitude 10° 13:15:53 10° 336° (NNW) 2,018 5.9 -15.6°
Maximum altitude 13:20:01 38° 269° (W) 969 4.0 -14.8°
Drops below altitude 10° 13:24:08 10° 201° (SSW) 2,002 6.0 -14.0°
Sets 13:26:28 0° 193° (SSW) 2,902 6.9 -13.6°
